| time (UTC) | temp F | wind direction | speed knots | gust knots | rain 1hr in | rain 24hr in | rain mn in | humidity % | barometer mb |
| 20260508135507 | 76 | 210 | 6.1 | 11.3 | 0.00 | 0.00 | 0.00 | 45 | 1016.9 |
| 20260508135010 | 76 | 203 | 6.1 | 11.3 | 0.00 | 0.00 | 0.00 | 46 | 1017.0 |
| 20260508134520 | 76 | 195 | 5.2 | 11.3 | 0.00 | 0.00 | 0.00 | 48 | 1017.0 |
| 20260508134047 | 76 | 205 | 7.0 | 11.3 | 0.00 | 0.00 | 0.00 | 48 | 1017.0 |
| 20260508132510 | 76 | 203 | 8.7 | 12.2 | 0.00 | 0.00 | 0.00 | 48 | 1017.0 |
| 20260508132029 | 76 | 197 | 7.8 | 13.0 | 0.00 | 0.00 | 0.00 | 50 | 1017.0 |
| 20260508131012 | 75 | 150 | 8.7 | 11.3 | 0.00 | 0.00 | 0.00 | 52 | 1017.0 |
| 20260508130511 | 75 | 141 | 8.7 | 12.2 | 0.00 | 0.00 | 0.00 | 53 | 1017.1 |
| 20260508130053 | 75 | 133 | 8.7 | 12.2 | 0.00 | 0.00 | 0.00 | 51 | 1017.1 |
| 20260508125506 | 75 | 169 | 8.7 | 12.2 | 0.00 | 0.00 | 0.00 | 54 | 1017.1 |
| 20260508124049 | 74 | 138 | 8.7 | 13.9 | 0.00 | 0.00 | 0.00 | 56 | 1017.0 |
| 20260508123520 | 74 | 131 | 9.6 | 14.8 | 0.00 | 0.00 | 0.00 | 56 | 1017.0 |
| 20260508122541 | 74 | 131 | 11.3 | 13.9 | 0.00 | 0.00 | 0.00 | 57 | 1017.0 |
| 20260508122012 | 74 | 147 | 9.6 | 13.0 | 0.00 | 0.00 | 0.00 | 62 | 1017.2 |
| 20260508120509 | 74 | 154 | 7.0 | 9.6 | 0.00 | 0.00 | 0.00 | 63 | 1017.2 |
| 20260508115004 | 74 | 124 | 7.8 | 10.4 | 0.00 | 0.00 | 0.00 | 65 | 1017.4 |
| 20260508114514 | 74 | 150 | 7.0 | 11.3 | 0.00 | 0.00 | 0.00 | 65 | 1017.3 |
| 20260508113508 | 73 | 129 | 9.6 | 12.2 | 0.00 | 0.00 | 0.00 | 62 | 1017.3 |
| 20260508112511 | 74 | 124 | 9.6 | 13.0 | 0.00 | 0.00 | 0.00 | 59 | 1017.4 |
| 20260508112013 | 74 | 139 | 8.7 | 12.2 | 0.00 | 0.00 | 0.00 | 61 | 1017.5 |
| 20260508111009 | 73 | 129 | 8.7 | 13.0 | 0.00 | 0.00 | 0.00 | 60 | 1017.4 |
| 20260508110028 | 74 | 126 | 7.8 | 13.9 | 0.00 | 0.00 | 0.00 | 60 | 1017.5 |
| 20260508105507 | 74 | 137 | 9.6 | 13.0 | 0.00 | 0.00 | 0.00 | 57 | 1017.6 |
| 20260508104530 | 74 | 129 | 7.8 | 12.2 | 0.00 | 0.00 | 0.00 | 62 | 1017.7 |
| 20260508104009 | 75 | 127 | 9.6 | 12.2 | 0.00 | 0.00 | 0.00 | 58 | 1017.7 |
| 20260508102507 | 75 | 44 | 5.2 | 11.3 | 0.00 | 0.00 | 0.00 | 57 | 1017.7 |
| 20260508102008 | 74 | 146 | 6.1 | 11.3 | 0.00 | 0.00 | 0.00 | 59 | 1017.7 |
| 20260508101534 | 74 | 110 | 7.8 | 11.3 | 0.00 | 0.00 | 0.00 | 56 | 1017.8 |
| 20260508101008 | 74 | 155 | 6.1 | 11.3 | 0.00 | 0.00 | 0.00 | 55 | 1017.9 |
| 20260508100512 | 74 | 126 | 7.0 | 12.2 | 0.00 | 0.00 | 0.00 | 55 | 1017.9 |
| 20260508100028 | 73 | 131 | 8.7 | 12.2 | 0.00 | 0.00 | 0.00 | 55 | 1017.9 |
| 20260508095509 | 73 | 122 | 8.7 | 11.3 | 0.00 | 0.00 | 0.00 | 53 | 1018.0 |
| 20260508095013 | 73 | 127 | 8.7 | 11.3 | 0.00 | 0.00 | 0.00 | 52 | 1018.0 |
| 20260508093512 | 74 | 123 | 8.7 | 11.3 | 0.00 | 0.00 | 0.00 | 49 | 1018.1 |
| 20260508093028 | 75 | 130 | 8.7 | 11.3 | 0.00 | 0.00 | 0.00 | 48 | 1018.1 |
| 20260508092009 | 75 | 97 | 6.1 | 10.4 | 0.00 | 0.00 | 0.00 | 50 | 1018.2 |
| 20260508091519 | 75 | 87 | 5.2 | 8.7 | 0.00 | 0.00 | 0.00 | 49 | 1018.3 |
| 20260508091008 | 76 | 87 | 5.2 | 7.8 | 0.00 | 0.00 | 0.00 | 49 | 1018.3 |
| 20260508090507 | 77 | 110 | 4.3 | 7.8 | 0.00 | 0.00 | 0.00 | 50 | 1018.3 |
| 20260508090022 | 77 | 120 | 3.5 | 7.0 | 0.00 | 0.00 | 0.00 | 49 | 1018.4 |
| 20260508085513 | 77 | 82 | 1.7 | 6.1 | 0.00 | 0.00 | 0.00 | 44 | 1018.4 |
| 20260508085010 | 76 | 80 | 4.3 | 6.1 | 0.00 | 0.00 | 0.00 | 37 | 1018.5 |
| 20260508084524 | 76 | 97 | 3.5 | 7.0 | 0.00 | 0.00 | 0.00 | 37 | 1018.6 |
| 20260508084013 | 76 | 53 | 4.3 | 7.0 | 0.00 | 0.00 | 0.00 | 36 | 1018.6 |
| 20260508083030 | 76 | 119 | 4.3 | 5.2 | 0.00 | 0.00 | 0.00 | 36 | 1018.6 |
| 20260508082509 | 76 | 85 | 3.5 | 5.2 | 0.00 | 0.00 | 0.00 | 37 | 1018.5 |
| 20260508082010 | 76 | 117 | 2.6 | 6.1 | 0.00 | 0.00 | 0.00 | 38 | 1018.5 |
| 20260508081551 | 76 | 100 | 3.5 | 7.8 | 0.00 | 0.00 | 0.00 | 37 | 1018.6 |
| 20260508081013 | 75 | 123 | 4.3 | 7.8 | 0.00 | 0.00 | 0.00 | 37 | 1018.5 |
| 20260508080020 | 75 | 75 | 3.5 | 6.1 | 0.00 | 0.00 | 0.00 | 44 | 1018.5 |
| 20260508074528 | 75 | 74 | 2.6 | 7.8 | 0.00 | 0.00 | 0.00 | 45 | 1018.6 |
| 20260508074006 | 75 | 44 | 4.3 | 7.8 | 0.00 | 0.00 | 0.00 | 43 | 1018.6 |
| 20260508073030 | 75 | 39 | 4.3 | 7.8 | 0.00 | 0.00 | 0.00 | 34 | 1018.7 |
| 20260508072504 | 75 | 52 | 5.2 | 7.8 | 0.00 | 0.00 | 0.00 | 33 | 1018.6 |
| 20260508071513 | 75 | 108 | 4.3 | 7.0 | 0.00 | 0.00 | 0.00 | 34 | 1018.7 |
| 20260508070510 | 75 | 45 | 4.3 | 7.0 | 0.00 | 0.00 | 0.00 | 36 | 1018.7 |
| 20260508070017 | 75 | 80 | 2.6 | 7.0 | 0.00 | 0.00 | 0.00 | 36 | 1018.6 |
| 20260508065507 | 75 | 58 | 3.5 | 7.8 | 0.00 | 0.00 | 0.00 | 37 | 1018.6 |
| 20260508065010 | 75 | 53 | 5.2 | 7.8 | 0.00 | 0.00 | 0.00 | 35 | 1018.7 |
| 20260508064016 | 75 | 95 | 4.3 | 8.7 | 0.00 | 0.00 | 0.00 | 34 | 1018.7 |
| 20260508063513 | 75 | 51 | 2.6 | 6.1 | 0.00 | 0.00 | 0.00 | 34 | 1018.7 |
| 20260508063005 | 75 | 64 | 2.6 | 6.1 | 0.00 | 0.00 | 0.00 | 36 | 1018.7 |
| 20260508062508 | 76 | 56 | 3.5 | 6.1 | 0.00 | 0.00 | 0.00 | 32 | 1018.8 |
| 20260508062004 | 76 | 65 | 1.7 | 5.2 | 0.00 | 0.00 | 0.00 | 33 | 1018.8 |
| 20260508061515 | 76 | 74 | 0.9 | 5.2 | 0.00 | 0.00 | 0.00 | 33 | 1018.8 |
| 20260508060512 | 75 | 324 | 0.9 | 6.1 | 0.00 | 0.00 | 0.00 | 35 | 1018.8 |
| 20260508060015 | 74 | 307 | 1.7 | 6.1 | 0.00 | 0.00 | 0.00 | 36 | 1018.8 |
| 20260508055007 | 74 | 315 | 5.2 | 7.8 | 0.00 | 0.00 | 0.00 | 36 | 1018.7 |
| 20260508054007 | 74 | 288 | 0.9 | 6.1 | 0.00 | 0.00 | 0.00 | 38 | 1018.6 |
| 20260508053511 | 73 | 25 | 2.6 | 6.1 | 0.00 | 0.00 | 0.00 | 38 | 1018.5 |
| 20260508053024 | 73 | 45 | 2.6 | 5.2 | 0.00 | 0.00 | 0.00 | 38 | 1018.4 |
| 20260508052508 | 73 | 306 | 3.5 | 5.2 | 0.00 | 0.00 | 0.00 | 38 | 1018.5 |
| 20260508052010 | 72 | 301 | 2.6 | 5.2 | 0.00 | 0.00 | 0.00 | 39 | 1018.7 |
| 20260508051535 | 72 | 41 | 1.7 | 5.2 | 0.00 | 0.00 | 0.00 | 41 | 1018.7 |
| 20260508051003 | 71 | 308 | 3.5 | 5.2 | 0.00 | 0.00 | 0.00 | 40 | 1018.5 |
| 20260508050503 | 71 | 321 | 2.6 | 4.3 | 0.00 | 0.00 | 0.00 | 42 | 1018.5 |
| 20260508050019 | 70 | 321 | 1.7 | 6.1 | 0.00 | 0.00 | 0.00 | 44 | 1018.6 |
| 20260508045004 | 67 | 347 | 1.7 | 3.5 | 0.00 | 0.00 | 0.00 | 48 | 1018.5 |
| 20260508044514 | 66 | 310 | 0.9 | 1.7 | 0.00 | 0.00 | 0.00 | 49 | 1018.6 |
| 20260508044009 | 66 | 309 | 0.0 | 2.6 | 0.00 | 0.00 | 0.00 | 50 | 1018.6 |
| 20260508043507 | 66 | 328 | 1.7 | 2.6 | 0.00 | 0.00 | 0.00 | 50 | 1018.5 |
| 20260508043019 | 66 | 303 | 0.0 | 0.0 | 0.00 | 0.00 | 0.00 | 47 | 1018.5 |
| 20260508042508 | 66 | 277 | 0.0 | 0.0 | 0.00 | 0.00 | 0.00 | 48 | 1018.6 |
| 20260508042008 | 65 | 275 | 0.0 | 1.7 | 0.00 | 0.00 | 0.00 | 49 | 1018.5 |
| 20260508041523 | 65 | 276 | 0.0 | 3.5 | 0.00 | 0.00 | 0.00 | 49 | 1018.5 |
| 20260508041011 | 64 | 293 | 1.7 | 3.5 | 0.00 | 0.00 | 0.00 | 48 | 1018.4 |
| 20260508040512 | 64 | 281 | 0.0 | 0.0 | 0.00 | 0.00 | 0.00 | 49 | 1018.4 |
| 20260508040012 | 63 | 233 | 0.0 | 0.0 | 0.00 | 0.00 | 0.00 | 50 | 1018.3 |
| 20260508035503 | 64 | 231 | 0.0 | 0.0 | 0.00 | 0.00 | 0.00 | 48 | 1018.3 |
| 20260508035004 | 64 | 234 | 0.0 | 0.0 | 0.00 | 0.00 | 0.00 | 46 | 1018.3 |
| 20260508034512 | 64 | 150 | 0.0 | 1.7 | 0.00 | 0.00 | 0.00 | 46 | 1018.2 |
| 20260508034007 | 64 | 149 | 0.0 | 1.7 | 0.00 | 0.00 | 0.00 | 47 | 1018.1 |
| 20260508033507 | 63 | 168 | 1.7 | 1.7 | 0.00 | 0.00 | 0.00 | 50 | 1018.1 |
| 20260508033022 | 63 | 199 | 0.0 | 2.6 | 0.00 | 0.00 | 0.00 | 49 | 1018.2 |
| 20260508032509 | 63 | 288 | 0.9 | 2.6 | 0.00 | 0.00 | 0.00 | 49 | 1018.0 |
| 20260508032011 | 63 | 290 | 1.7 | 2.6 | 0.00 | 0.00 | 0.00 | 49 | 1017.9 |
| 20260508031529 | 62 | 256 | 1.7 | 3.5 | 0.00 | 0.00 | 0.00 | 51 | 1017.8 |
| 20260508031006 | 63 | 210 | 1.7 | 4.3 | 0.00 | 0.00 | 0.00 | 51 | 1017.9 |
| 20260508030510 | 64 | 260 | 1.7 | 5.2 | 0.00 | 0.00 | 0.00 | 50 | 1017.9 |
| 20260508030028 | 64 | 298 | 4.3 | 5.2 | 0.00 | 0.00 | 0.00 | 49 | 1017.7 |
| 20260508025511 | 64 | 306 | 4.3 | 6.1 | 0.00 | 0.00 | 0.00 | 49 | 1017.6 |
| 20260508025003 | 64 | 317 | 4.3 | 6.1 | 0.00 | 0.00 | 0.00 | 47 | 1017.6 |
| 20260508024507 | 64 | 317 | 4.3 | 7.0 | 0.00 | 0.00 | 0.00 | 48 | 1017.4 |
| 20260508024003 | 64 | 295 | 4.3 | 7.8 | 0.00 | 0.00 | 0.00 | 49 | 1017.5 |
| 20260508023504 | 64 | 306 | 5.2 | 7.8 | 0.00 | 0.00 | 0.00 | 50 | 1017.4 |
| 20260508023023 | 64 | 304 | 6.1 | 7.8 | 0.00 | 0.00 | 0.00 | 48 | 1017.4 |
| 20260508022506 | 64 | 358 | 5.2 | 7.8 | 0.00 | 0.00 | 0.00 | 48 | 1017.3 |
| 20260508022006 | 64 | 331 | 6.1 | 7.8 | 0.00 | 0.00 | 0.00 | 47 | 1017.3 |
| 20260508021517 | 64 | 353 | 4.3 | 7.8 | 0.00 | 0.00 | 0.00 | 47 | 1017.1 |
| 20260508021008 | 64 | 304 | 3.5 | 7.8 | 0.00 | 0.00 | 0.00 | 46 | 1017.1 |
| 20260508020509 | 64 | 333 | 4.3 | 7.8 | 0.00 | 0.00 | 0.00 | 48 | 1017.1 |
| 20260508020022 | 64 | 314 | 4.3 | 7.8 | 0.00 | 0.00 | 0.00 | 49 | 1017.3 |
| 20260508015508 | 64 | 326 | 4.3 | 7.8 | 0.00 | 0.00 | 0.00 | 45 | 1017.2 |
| 20260508015014 | 64 | 311 | 4.3 | 9.6 | 0.00 | 0.00 | 0.00 | 46 | 1017.1 |
| 20260508014543 | 64 | 342 | 5.2 | 9.6 | 0.00 | 0.00 | 0.00 | 46 | 1017.2 |
| 20260508014008 | 64 | 322 | 4.3 | 7.8 | 0.00 | 0.00 | 0.00 | 46 | 1017.3 |
| 20260508013503 | 64 | 345 | 4.3 | 9.6 | 0.00 | 0.00 | 0.00 | 46 | 1017.2 |
| 20260508013011 | 64 | 273 | 6.1 | 10.4 | 0.00 | 0.00 | 0.00 | 46 | 1017.2 |
| 20260508012507 | 64 | 310 | 6.1 | 10.4 | 0.00 | 0.00 | 0.00 | 47 | 1017.1 |
| 20260508012007 | 64 | 300 | 5.2 | 11.3 | 0.00 | 0.00 | 0.00 | 49 | 1017.2 |
| 20260508011518 | 64 | 306 | 8.7 | 11.3 | 0.00 | 0.00 | 0.00 | 49 | 1017.3 |
| 20260508011006 | 64 | 338 | 7.0 | 10.4 | 0.00 | 0.00 | 0.00 | 50 | 1017.2 |
| 20260508010508 | 63 | 304 | 7.0 | 8.7 | 0.00 | 0.00 | 0.00 | 51 | 1017.2 |
| 20260508010031 | 63 | 322 | 5.2 | 8.7 | 0.00 | 0.00 | 0.00 | 51 | 1017.2 |
| 20260508005515 | 64 | 321 | 6.1 | 8.7 | 0.00 | 0.00 | 0.00 | 52 | 1017.1 |
| 20260508005011 | 64 | 330 | 4.3 | 8.7 | 0.00 | 0.00 | 0.00 | 49 | 1017.1 |
| 20260508004529 | 64 | 325 | 6.1 | 10.4 | 0.00 | 0.00 | 0.00 | 47 | 1017.1 |
| 20260508004010 | 64 | 298 | 4.3 | 11.3 | 0.00 | 0.00 | 0.00 | 51 | 1017.1 |
| 20260508003514 | 64 | 308 | 7.8 | 11.3 | 0.00 | 0.00 | 0.00 | 49 | 1017.1 |
| 20260508003051 | 64 | 296 | 7.0 | 11.3 | 0.00 | 0.00 | 0.00 | 50 | 1017.2 |
| 20260508002513 | 64 | 293 | 6.1 | 11.3 | 0.00 | 0.00 | 0.00 | 48 | 1017.3 |
| 20260508002010 | 64 | 303 | 5.2 | 9.6 | 0.00 | 0.00 | 0.00 | 46 | 1017.3 |
| 20260508001512 | 64 | 327 | 3.5 | 12.2 | 0.00 | 0.00 | 0.00 | 48 | 1017.2 |
| 20260508001006 | 64 | 301 | 7.0 | 12.2 | 0.00 | 0.00 | 0.00 | 49 | 1017.4 |
| 20260508000507 | 64 | 302 | 7.8 | 13.0 | 0.00 | 0.00 | 0.00 | 50 | 1017.4 |
| 20260508000017 | 64 | 334 | 8.7 | 14.8 | 0.00 | 0.00 | 0.00 | 49 | 1017.5 |
| 20260507235514 | 64 | 297 | 9.6 | 14.8 | 0.00 | 0.00 | 0.00 | 48 | 1017.6 |
| 20260507235006 | 64 | 304 | 7.8 | 11.3 | 0.00 | 0.00 | 0.00 | 50 | 1017.5 |
| 20260507234523 | 64 | 300 | 7.0 | 11.3 | 0.00 | 0.00 | 0.00 | 47 | 1017.4 |
| 20260507234009 | 64 | 285 | 5.2 | 9.6 | 0.00 | 0.00 | 0.00 | 46 | 1017.4 |
| 20260507233506 | 64 | 315 | 5.2 | 9.6 | 0.00 | 0.00 | 0.00 | 48 | 1017.4 |
| 20260507233032 | 64 | 324 | 4.3 | 7.8 | 0.00 | 0.00 | 0.00 | 51 | 1017.4 |
| 20260507232510 | 63 | 327 | 3.5 | 7.8 | 0.00 | 0.00 | 0.00 | 56 | 1017.5 |
| 20260507232015 | 63 | 324 | 4.3 | 8.7 | 0.00 | 0.00 | 0.00 | 61 | 1017.6 |
| 20260507231531 | 63 | 305 | 4.3 | 10.4 | 0.00 | 0.00 | 0.00 | 63 | 1017.6 |
| 20260507231014 | 64 | 305 | 7.0 | 10.4 | 0.00 | 0.00 | 0.00 | 63 | 1017.7 |
| 20260507230510 | 64 | 300 | 6.1 | 10.4 | 0.00 | 0.00 | 0.00 | 62 | 1017.6 |
| 20260507230017 | 64 | 330 | 6.1 | 9.6 | 0.00 | 0.00 | 0.00 | 60 | 1017.5 |
| 20260507225511 | 64 | 304 | 5.2 | 8.7 | 0.00 | 0.00 | 0.00 | 60 | 1017.5 |
| 20260507225005 | 64 | 310 | 5.2 | 7.8 | 0.00 | 0.00 | 0.00 | 60 | 1017.5 |
| 20260507224520 | 64 | 321 | 4.3 | 11.3 | 0.00 | 0.00 | 0.00 | 60 | 1017.5 |
| 20260507224008 | 64 | 319 | 4.3 | 11.3 | 0.00 | 0.00 | 0.00 | 61 | 1017.6 |
| 20260507223507 | 64 | 306 | 5.2 | 10.4 | 0.00 | 0.00 | 0.00 | 61 | 1017.7 |
| 20260507223026 | 64 | 309 | 4.3 | 9.6 | 0.00 | 0.00 | 0.00 | 61 | 1017.7 |
| 20260507222508 | 64 | 305 | 5.2 | 9.6 | 0.00 | 0.00 | 0.00 | 61 | 1017.7 |
| 20260507222010 | 64 | 330 | 4.3 | 12.2 | 0.00 | 0.00 | 0.00 | 62 | 1017.7 |
| 20260507221003 | 64 | 340 | 6.1 | 10.4 | 0.00 | 0.00 | 0.00 | 65 | 1017.8 |
| 20260507220506 | 64 | 323 | 5.2 | 12.2 | 0.00 | 0.00 | 0.00 | 65 | 1017.9 |
| 20260507220013 | 64 | 317 | 5.2 | 12.2 | 0.00 | 0.00 | 0.00 | 65 | 1018.0 |
| 20260507215506 | 64 | 300 | 5.2 | 10.4 | 0.00 | 0.00 | 0.00 | 65 | 1018.0 |
| 20260507215007 | 64 | 23 | 4.3 | 10.4 | 0.00 | 0.00 | 0.00 | 66 | 1018.0 |
| 20260507214518 | 64 | 328 | 4.3 | 10.4 | 0.00 | 0.00 | 0.00 | 67 | 1018.1 |
| 20260507214005 | 64 | 32 | 5.2 | 10.4 | 0.00 | 0.00 | 0.00 | 67 | 1018.2 |
| 20260507213509 | 64 | 302 | 5.2 | 10.4 | 0.00 | 0.00 | 0.00 | 69 | 1018.3 |
| 20260507213020 | 64 | 310 | 4.3 | 9.6 | 0.00 | 0.00 | 0.00 | 69 | 1018.3 |
| 20260507212508 | 64 | 326 | 6.1 | 10.4 | 0.00 | 0.00 | 0.00 | 69 | 1018.3 |
| 20260507212009 | 64 | 302 | 4.3 | 10.4 | 0.00 | 0.00 | 0.00 | 70 | 1018.3 |
| 20260507211526 | 64 | 300 | 5.2 | 9.6 | 0.00 | 0.00 | 0.00 | 70 | 1018.3 |
| 20260507211010 | 64 | 330 | 5.2 | 9.6 | 0.00 | 0.00 | 0.00 | 70 | 1018.3 |
| 20260507210503 | 64 | 311 | 4.3 | 12.2 | 0.00 | 0.00 | 0.00 | 70 | 1018.3 |
| 20260507210011 | 64 | 326 | 5.2 | 12.2 | 0.00 | 0.00 | 0.00 | 71 | 1018.4 |
| 20260507205503 | 64 | 331 | 7.0 | 14.8 | 0.00 | 0.00 | 0.00 | 71 | 1018.4 |
| 20260507205006 | 64 | 329 | 7.0 | 16.5 | 0.00 | 0.00 | 0.00 | 71 | 1018.4 |
| 20260507204514 | 64 | 300 | 7.8 | 16.5 | 0.00 | 0.00 | 0.00 | 71 | 1018.4 |
| 20260507204005 | 64 | 331 | 6.1 | 13.9 | 0.00 | 0.00 | 0.00 | 71 | 1018.3 |
| 20260507203509 | 64 | 309 | 5.2 | 13.9 | 0.00 | 0.00 | 0.00 | 71 | 1018.4 |
| 20260507203019 | 64 | 330 | 6.1 | 13.9 | 0.00 | 0.00 | 0.00 | 70 | 1018.4 |
| 20260507202509 | 65 | 290 | 7.8 | 13.9 | 0.00 | 0.00 | 0.00 | 70 | 1018.4 |
| 20260507202009 | 65 | 280 | 7.0 | 12.2 | 0.00 | 0.00 | 0.00 | 70 | 1018.4 |
| 20260507201527 | 65 | 312 | 7.0 | 11.3 | 0.00 | 0.00 | 0.00 | 69 | 1018.4 |
| 20260507201007 | 65 | 319 | 5.2 | 11.3 | 0.00 | 0.00 | 0.00 | 67 | 1018.4 |
| 20260507200510 | 65 | 335 | 6.1 | 12.2 | 0.00 | 0.00 | 0.00 | 66 | 1018.4 |
| 20260507200027 | 65 | 307 | 4.3 | 12.2 | 0.00 | 0.00 | 0.00 | 66 | 1018.4 |
| 20260507195507 | 65 | 319 | 5.2 | 10.4 | 0.00 | 0.00 | 0.00 | 67 | 1018.3 |
| 20260507195003 | 65 | 325 | 5.2 | 8.7 | 0.00 | 0.00 | 0.00 | 67 | 1018.3 |
| 20260507194511 | 65 | 295 | 4.3 | 12.2 | 0.00 | 0.00 | 0.00 | 68 | 1018.4 |
| 20260507194003 | 65 | 318 | 6.1 | 12.2 | 0.00 | 0.00 | 0.00 | 67 | 1018.4 |
| 20260507193506 | 65 | 302 | 7.0 | 11.3 | 0.00 | 0.00 | 0.00 | 66 | 1018.4 |
| 20260507193014 | 65 | 328 | 4.3 | 11.3 | 0.00 | 0.00 | 0.00 | 64 | 1018.4 |
| 20260507192505 | 65 | 327 | 5.2 | 11.3 | 0.00 | 0.00 | 0.00 | 65 | 1018.4 |
| 20260507192014 | 65 | 302 | 4.3 | 11.3 | 0.00 | 0.00 | 0.00 | 65 | 1018.4 |
| 20260507191520 | 65 | 302 | 5.2 | 11.3 | 0.00 | 0.00 | 0.00 | 66 | 1018.4 |
| 20260507191007 | 65 | 344 | 3.5 | 7.8 | 0.00 | 0.00 | 0.00 | 66 | 1018.4 |
| 20260507190510 | 65 | 314 | 4.3 | 8.7 | 0.00 | 0.00 | 0.00 | 66 | 1018.4 |
| 20260507190027 | 65 | 328 | 3.5 | 8.7 | 0.00 | 0.00 | 0.00 | 66 | 1018.3 |
| 20260507185509 | 65 | 312 | 4.3 | 8.7 | 0.00 | 0.00 | 0.00 | 65 | 1018.4 |
| 20260507185011 | 65 | 323 | 3.5 | 8.7 | 0.00 | 0.00 | 0.00 | 65 | 1018.3 |
| 20260507184525 | 66 | 304 | 3.5 | 7.0 | 0.00 | 0.00 | 0.00 | 65 | 1018.3 |
| 20260507184007 | 66 | 327 | 2.6 | 6.1 | 0.00 | 0.00 | 0.00 | 65 | 1018.2 |
| 20260507183504 | 66 | 317 | 1.7 | 6.1 | 0.00 | 0.00 | 0.00 | 65 | 1018.3 |
| 20260507183040 | 66 | 322 | 2.6 | 5.2 | 0.00 | 0.00 | 0.00 | 65 | 1018.3 |
| 20260507182505 | 66 | 330 | 1.7 | 8.7 | 0.00 | 0.00 | 0.00 | 65 | 1018.2 |
| 20260507182009 | 66 | 302 | 1.7 | 8.7 | 0.00 | 0.00 | 0.00 | 65 | 1018.2 |
| 20260507181515 | 66 | 317 | 3.5 | 8.7 | 0.00 | 0.00 | 0.00 | 65 | 1018.2 |
| 20260507181005 | 66 | 325 | 4.3 | 8.7 | 0.00 | 0.00 | 0.00 | 65 | 1018.2 |
| 20260507180511 | 66 | 18 | 3.5 | 7.0 | 0.00 | 0.00 | 0.00 | 66 | 1018.1 |
| 20260507180021 | 66 | 356 | 1.7 | 6.1 | 0.00 | 0.00 | 0.00 | 67 | 1018.0 |
| 20260507175511 | 66 | 23 | 1.7 | 7.0 | 0.00 | 0.00 | 0.00 | 70 | 1018.0 |
| 20260507175007 | 66 | 7 | 2.6 | 7.0 | 0.00 | 0.00 | 0.00 | 70 | 1018.0 |
| 20260507174523 | 66 | 317 | 2.6 | 6.1 | 0.00 | 0.00 | 0.00 | 71 | 1017.9 |
| 20260507174009 | 66 | 323 | 2.6 | 6.1 | 0.00 | 0.00 | 0.00 | 72 | 1017.9 |
| 20260507173509 | 65 | 303 | 3.5 | 5.2 | 0.00 | 0.00 | 0.00 | 73 | 1017.9 |
| 20260507173031 | 65 | 283 | 4.3 | 6.1 | 0.00 | 0.00 | 0.00 | 72 | 1017.8 |
| 20260507172509 | 66 | 297 | 4.3 | 7.8 | 0.00 | 0.00 | 0.00 | 72 | 1017.9 |
| 20260507172006 | 66 | 298 | 4.3 | 8.7 | 0.00 | 0.00 | 0.00 | 73 | 1017.9 |
| 20260507171511 | 66 | 264 | 7.0 | 8.7 | 0.00 | 0.00 | 0.00 | 72 | 1017.9 |
| 20260507171008 | 66 | 249 | 6.1 | 8.7 | 0.00 | 0.00 | 0.00 | 72 | 1017.9 |
| 20260507170507 | 66 | 249 | 6.1 | 7.0 | 0.00 | 0.00 | 0.00 | 70 | 1017.9 |
| 20260507170017 | 66 | 253 | 4.3 | 5.2 | 0.00 | 0.00 | 0.00 | 70 | 1017.8 |
| 20260507165510 | 66 | 243 | 4.3 | 6.1 | 0.00 | 0.00 | 0.00 | 70 | 1017.7 |
| 20260507165014 | 66 | 238 | 3.5 | 7.0 | 0.00 | 0.00 | 0.00 | 70 | 1017.6 |
| 20260507164524 | 66 | 232 | 5.2 | 8.7 | 0.00 | 0.00 | 0.00 | 70 | 1017.7 |
| 20260507164010 | 67 | 233 | 5.2 | 8.7 | 0.00 | 0.00 | 0.00 | 69 | 1017.7 |
| 20260507163507 | 67 | 245 | 7.0 | 8.7 | 0.00 | 0.00 | 0.00 | 68 | 1017.8 |
| 20260507163028 | 67 | 223 | 6.1 | 8.7 | 0.00 | 0.00 | 0.00 | 67 | 1017.8 |
| 20260507162510 | 68 | 232 | 6.1 | 7.8 | 0.00 | 0.00 | 0.00 | 66 | 1017.7 |
| 20260507162018 | 68 | 210 | 4.3 | 8.7 | 0.00 | 0.00 | 0.00 | 64 | 1017.7 |
| 20260507161527 | 69 | 203 | 6.1 | 8.7 | 0.00 | 0.00 | 0.00 | 63 | 1017.7 |
| 20260507161009 | 70 | 175 | 4.3 | 7.0 | 0.00 | 0.00 | 0.00 | 61 | 1017.6 |
| 20260507160529 | 70 | 248 | 4.3 | 7.8 | 0.00 | 0.00 | 0.00 | 59 | 1017.6 |
| 20260507160015 | 70 | 219 | 6.1 | 7.8 | 0.00 | 0.00 | 0.00 | 60 | 1017.6 |
| 20260507155509 | 70 | 248 | 5.2 | 7.8 | 0.00 | 0.00 | 0.00 | 60 | 1017.6 |
| 20260507155011 | 70 | 221 | 6.1 | 7.8 | 0.00 | 0.00 | 0.00 | 59 | 1017.6 |
| 20260507154520 | 70 | 213 | 5.2 | 7.8 | 0.00 | 0.00 | 0.00 | 60 | 1017.5 |
| 20260507154010 | 70 | 247 | 6.1 | 7.8 | 0.00 | 0.00 | 0.00 | 58 | 1017.5 |
| 20260507153507 | 70 | 190 | 4.3 | 7.8 | 0.00 | 0.00 | 0.00 | 59 | 1017.6 |
| 20260507153031 | 70 | 235 | 6.1 | 9.6 | 0.00 | 0.00 | 0.00 | 58 | 1017.6 |
| 20260507152512 | 70 | 250 | 6.1 | 9.6 | 0.00 | 0.00 | 0.00 | 58 | 1017.5 |
| 20260507152007 | 70 | 233 | 6.1 | 9.6 | 0.00 | 0.00 | 0.00 | 57 | 1017.6 |
| 20260507151526 | 71 | 220 | 6.1 | 7.8 | 0.00 | 0.00 | 0.00 | 57 | 1017.7 |
| 20260507151010 | 71 | 206 | 3.5 | 7.8 | 0.00 | 0.00 | 0.00 | 53 | 1017.6 |
| 20260507150513 | 71 | 159 | 5.2 | 8.7 | 0.00 | 0.00 | 0.00 | 53 | 1017.6 |
| 20260507150026 | 71 | 182 | 5.2 | 8.7 | 0.00 | 0.00 | 0.00 | 54 | 1017.6 |
| 20260507145507 | 71 | 214 | 7.0 | 8.7 | 0.00 | 0.00 | 0.00 | 53 | 1017.6 |
| 20260507145005 | 71 | 131 | 2.6 | 5.2 | 0.00 | 0.00 | 0.00 | 52 | 1017.6 |
| 20260507144520 | 72 | 210 | 1.7 | 6.1 | 0.00 | 0.00 | 0.00 | 52 | 1017.7 |
| 20260507144007 | 72 | 207 | 4.3 | 6.1 | 0.00 | 0.00 | 0.00 | 51 | 1017.6 |
| 20260507143510 | 71 | 180 | 3.5 | 6.1 | 0.00 | 0.00 | 0.00 | 51 | 1017.7 |
| 20260507143026 | 71 | 143 | 4.3 | 8.7 | 0.00 | 0.00 | 0.00 | 51 | 1017.7 |
| 20260507142508 | 71 | 227 | 6.1 | 8.7 | 0.00 | 0.00 | 0.00 | 51 | 1017.8 |
| 20260507142010 | 71 | 205 | 4.3 | 7.0 | 0.00 | 0.00 | 0.00 | 52 | 1017.8 |